Hourly Data Report for July 06, 2021

SECHELT AUT
BRITISH COLUMBIA
Current Station Operator: ECCC - MSC

49°27'28.788" N
123°42'54.945" W
86.20 m
1047172
71638
VOU

Download Data

Hourly Data (July 2021)
Hourly Data Report for July 6, 2021
TIME
LST
Temp Definition
°C
Dew Point Definition
°C
Rel Hum Definition
%
Precip. Amount Definition
mm

Wind Dir Definition
10's deg

Wind Spd Definition
km/h
Visibility Definition
km
Stn Press Definition
kPa
Hmdx Definition


Wind Chill Definition


Weather Definition


00:00 15.8 13.6 87 0.0 33 3   100.72     LegendNANA
01:00 15.2 13.2 88 0.0 35 2   100.72     LegendNANA
02:00 15.0 13.1 88 0.0 33 3   100.73     LegendNANA
03:00 14.3 12.2 87 0.0 34 3   100.73     LegendNANA
04:00 13.7 12.2 91 0.0 34 2   100.75     LegendNANA
05:00 14.3 12.7 91 0.0 33 3   100.77     LegendNANA
06:00 15.9 12.7 81 0.0   0   100.78     LegendNANA
07:00 19.5 15.5 78 0.0 26 2   100.77     LegendNANA
08:00 20.2 15.9 76 0.0 29 3   100.80 25   LegendNANA
09:00 20.0 15.9 77 0.0 27 7   100.74 25   LegendNANA
10:00 21.3 16.1 72 0.0 28 6   100.70 26   LegendNANA
11:00 20.7 15.1 70 0.0 27 7   100.68 25   LegendNANA
12:00 22.6 14.9 62 0.0 28 6   100.61 27   LegendNANA
13:00 22.8 15.3 63 0.0 28 9   100.54 27   LegendNANA
14:00 26.4 16.0 53 0.0 17 6   100.48 31   LegendNANA
15:00 26.1 15.1 51 0.0 22 4   100.41 30   LegendNANA
16:00 27.3 15.3 48 0.0 16 5   100.34 31   LegendNANA
17:00 26.0 14.3 48 0.0 19 4   100.29 30   LegendNANA
18:00 26.5 13.7 45 0.0 26 3   100.23 30   LegendNANA
19:00 22.9 17.3 71 0.0 16 6   100.19 28   LegendNANA
20:00 20.4 17.3 83 0.0 14 4   100.17 26   LegendNANA
21:00 19.2 16.9 86 0.0 11 6   100.18     LegendNANA
22:00 18.4 16.0 86 0.0 0 1   100.16     LegendNANA
23:00 18.7 15.2 80 0.0 9 5   100.18     LegendNANA

Notes on Data Quality.

Legend

  • E = Estimated
  • M = Missing
  • NA = Not Available*
  • [empty] = Indicates an unobserved value
Date modified: